Weather History for Mount Pleasant, MI

Change the Weather History Date:

Friday, September 27, 2013

  Actual Average (KAMN) Record (KAMN)
Temperature  
Mean Temperature 59 °F -  
Max Temperature 77 °F 67 °F 87 °F (1999)
Min Temperature 41 °F 45 °F 28 °F (1965)
Degree Days  
Heating Degree Days 6    
Growing Degree Days 9 (Base 50)    
Moisture  
Dew Point 48 °F    
Average Humidity 74    
Maximum Humidity 96    
Minimum Humidity 35    
Precipitation  
Precipitation 0.00 in - - ()
Sea Level Pressure  
Sea Level Pressure 30.19 in    
Wind  
Wind Speed 1 mph (East)    
Max Wind Speed 9 mph    
Max Gust Speed -    
Visibility 7 miles    
Events Fog    
Averages and records for this station are not official NWS values.
T = Trace of Precipitation, MM = Missing Value Source: NWS Daily Summary

Daily Weather History Graph

Daily Weather History Graph

Search for Another Location

Airport:

Trip Planner

Search our weather history database for the weather conditions in past years. The results will help you decide how hot, cold, wet, or windy it might be!

Date:

Astronomy

Sep. 27, 2013 Rise Set
Actual Time 7:32 AM EDT 7:26 PM EDT
Civil Twilight 7:03 AM EDT 7:55 PM EDT
Nautical Twilight 6:30 AM EDT 8:28 PM EDT
Astronomical Twilight 5:56 AM EDT 9:02 PM EDT
Moon 12:16 AM EDT (9/27) 3:14 PM EDT (9/27)
Length of Visible Light 12h 51m
Length of Day
11h 54m
Last Quarter, 45% of the Moon is Illuminated
Sep 27
Last Quarter
Oct 4
New
Oct 11
First Quarter
Oct 18
Full
Oct 26
Last Quarter

Hourly Weather History & Observations

Time (EDT) Temp. Dew Point Humidity Pressure Visibility Wind Dir Wind Speed Gust Speed Precip Events Conditions
12:17 AM 49.6 °F 47.5 °F 92% 30.16 in 10.0 mi Calm Calm - N/A   Clear
12:37 AM 49.3 °F 47.3 °F 93% 30.16 in 1.0 mi Calm Calm - N/A   Mist
12:57 AM 48.4 °F 46.6 °F 93% 30.16 in 1.2 mi Calm Calm - N/A   Mist
1:17 AM 48.0 °F 46.4 °F 94% 30.16 in 0.5 mi Calm Calm - N/A Fog Fog
1:37 AM 48.2 °F 46.6 °F 94% 30.16 in 0.5 mi Calm Calm - N/A Fog Fog
1:57 AM 47.8 °F 46.4 °F 95% 30.16 in 0.5 mi Calm Calm - N/A Fog Fog
2:17 AM 46.8 °F 45.3 °F 95% 30.17 in 0.5 mi Calm Calm - N/A Fog Fog
2:37 AM 46.2 °F 44.6 °F 94% 30.18 in 0.8 mi Calm Calm - N/A   Scattered Clouds
2:57 AM 46.8 °F 45.1 °F 94% 30.18 in 0.8 mi Calm Calm - N/A   Mostly Cloudy
3:17 AM 46.4 °F 44.8 °F 94% 30.18 in 0.8 mi Calm Calm - N/A   Mostly Cloudy
3:37 AM 46.0 °F 44.6 °F 95% 30.18 in 0.2 mi Calm Calm - N/A Fog Fog
3:57 AM 45.1 °F 43.7 °F 95% 30.18 in 0.8 mi Calm Calm - N/A   Overcast
4:17 AM 46.4 °F 45.0 °F 95% 30.18 in 0.2 mi Calm Calm - N/A Fog Fog
4:37 AM 45.9 °F 44.4 °F 95% 30.18 in 0.2 mi Calm Calm - N/A Fog Fog
4:57 AM 45.9 °F 44.6 °F 95% 30.19 in 0.5 mi Calm Calm - N/A Fog Fog
5:18 AM 44.1 °F 42.6 °F 95% 30.19 in 0.2 mi Calm Calm - N/A Fog Fog
5:37 AM 43.9 °F 42.4 °F 95% 30.19 in 0.2 mi Calm Calm - N/A Fog Fog
5:57 AM 44.2 °F 43.0 °F 95% 30.20 in 0.5 mi Calm Calm - N/A Fog Fog
6:18 AM 43.0 °F 41.5 °F 95% 30.20 in 0.5 mi Calm Calm - N/A Fog Fog
6:37 AM 42.8 °F 41.4 °F 95% 30.21 in 0.5 mi Calm Calm - N/A Fog Fog
6:57 AM 43.5 °F 42.3 °F 95% 30.21 in 0.8 mi Calm Calm - N/A   Overcast
7:18 AM 42.3 °F 40.8 °F 95% 30.22 in 0.2 mi Calm Calm - N/A Fog Fog
7:37 AM 41.7 °F 40.5 °F 95% 30.22 in - Calm Calm - N/A   Unknown
7:57 AM 42.1 °F 41.0 °F 96% 30.23 in - Calm Calm - N/A   Unknown
8:17 AM 43.2 °F 41.9 °F 95% 30.23 in 5.0 mi Calm Calm - N/A   Mostly Cloudy
8:37 AM 44.6 °F 43.3 °F 95% 30.23 in 4.0 mi Calm Calm - N/A   Overcast
8:57 AM 47.1 °F 45.9 °F 95% 30.24 in 4.0 mi Calm Calm - N/A   Scattered Clouds
9:17 AM 48.4 °F 47.3 °F 96% 30.23 in 10.0 mi Calm Calm - N/A   Clear
9:37 AM 50.4 °F 49.1 °F 95% 30.24 in 10.0 mi Calm Calm - N/A   Clear
9:57 AM 52.5 °F 50.7 °F 94% 30.24 in 10.0 mi Calm Calm - N/A   Clear
10:17 AM 54.7 °F 51.8 °F 90% 30.24 in 10.0 mi Calm Calm - N/A   Clear
10:37 AM 56.5 °F 52.7 °F 87% 30.23 in 10.0 mi Calm Calm - N/A   Clear
10:57 AM 59.0 °F 52.7 °F 80% 30.24 in 10.0 mi Calm Calm - N/A   Clear
11:17 AM 62.8 °F 53.8 °F 72% 30.24 in 10.0 mi Calm Calm - N/A   Clear
11:37 AM 64.9 °F 53.2 °F 66% 30.25 in 10.0 mi Calm Calm - N/A   Clear
11:57 AM 66.7 °F 52.0 °F 59% 30.24 in 10.0 mi Calm Calm - N/A   Clear
12:17 PM 68.2 °F 50.4 °F 53% 30.24 in 10.0 mi Calm Calm - N/A   Clear
12:37 PM 69.4 °F 48.2 °F 47% 30.23 in 10.0 mi SE 3.5 mph - N/A   Clear
12:57 PM 70.9 °F 47.1 °F 43% 30.23 in 10.0 mi SE 3.5 mph - N/A   Clear
1:17 PM 72.1 °F 46.2 °F 40% 30.23 in 10.0 mi East 5.8 mph - N/A   Clear
1:37 PM 73.0 °F 46.2 °F 38% 30.23 in 10.0 mi ESE 4.6 mph - N/A   Clear
1:57 PM 73.8 °F 47.7 °F 40% 30.22 in 10.0 mi SE 6.9 mph - N/A   Clear
2:17 PM 74.5 °F 48.2 °F 39% 30.21 in 10.0 mi ESE 3.5 mph - N/A   Clear
2:37 PM 75.0 °F 48.0 °F 38% 30.21 in 10.0 mi SE 6.9 mph - N/A   Clear
2:57 PM 75.4 °F 48.2 °F 38% 30.20 in 10.0 mi ESE 5.8 mph - N/A   Clear
3:17 PM 76.3 °F 47.7 °F 36% 30.19 in 10.0 mi ESE 3.5 mph - N/A   Clear
3:38 PM 76.6 °F 47.3 °F 35% 30.19 in 10.0 mi East 6.9 mph - N/A   Clear
3:57 PM 76.5 °F 47.5 °F 36% 30.18 in 10.0 mi East 8.1 mph - N/A   Clear
4:17 PM 76.8 °F 47.3 °F 35% 30.18 in 10.0 mi East 9.2 mph - N/A   Clear
4:38 PM 76.8 °F 47.1 °F 35% 30.17 in 10.0 mi ESE 8.1 mph - N/A   Clear
4:57 PM 76.8 °F 47.8 °F 36% 30.17 in 10.0 mi ESE 3.5 mph - N/A   Clear
5:17 PM 77.0 °F 47.5 °F 35% 30.17 in 10.0 mi East 6.9 mph - N/A   Clear
5:38 PM 76.5 °F 47.5 °F 36% 30.16 in 10.0 mi ENE 8.1 mph - N/A   Clear
5:57 PM 75.7 °F 47.5 °F 37% 30.16 in 10.0 mi East 8.1 mph - N/A   Clear
6:17 PM 74.5 °F 48.2 °F 39% 30.16 in 10.0 mi East 6.9 mph - N/A   Clear
6:38 PM 72.5 °F 51.3 °F 47% 30.16 in 10.0 mi ENE 4.6 mph - N/A   Clear
6:57 PM 70.3 °F 51.8 °F 52% 30.16 in 10.0 mi Calm Calm - N/A   Clear
7:17 PM 67.5 °F 52.9 °F 59% 30.16 in 10.0 mi East 3.5 mph - N/A   Clear
7:38 PM 64.2 °F 53.1 °F 67% 30.16 in 10.0 mi East 4.6 mph - N/A   Clear
7:57 PM 63.7 °F 52.7 °F 67% 30.16 in 10.0 mi East 3.5 mph - N/A   Clear
8:17 PM 62.6 °F 52.3 °F 69% 30.17 in 10.0 mi Calm Calm - N/A   Clear
8:37 PM 58.6 °F 53.4 °F 83% 30.17 in 10.0 mi East 5.8 mph - N/A   Clear
8:57 PM 58.3 °F 52.3 °F 81% 30.17 in 10.0 mi East 4.6 mph - N/A   Clear
9:17 PM 59.2 °F 52.7 °F 79% 30.17 in 10.0 mi East 4.6 mph - N/A   Clear
9:37 PM 59.9 °F 52.3 °F 76% 30.17 in 10.0 mi East 3.5 mph - N/A   Clear
9:57 PM 59.0 °F 52.0 °F 78% 30.18 in 10.0 mi Calm Calm - N/A   Clear
10:17 PM 59.2 °F 52.3 °F 78% 30.18 in 10.0 mi Calm Calm - N/A   Clear
10:37 PM 55.4 °F 51.1 °F 85% 30.18 in 10.0 mi Calm Calm - N/A   Clear
10:57 PM 54.5 °F 52.0 °F 91% 30.18 in 7.0 mi Calm Calm - N/A   Clear
11:17 PM 52.9 °F 50.9 °F 93% 30.18 in 10.0 mi Calm Calm - N/A   Clear
11:37 PM 50.4 °F 48.2 °F 92% 30.18 in 4.0 mi Calm Calm - N/A   Clear
11:57 PM 51.8 °F 50.2 °F 94% 30.18 in 10.0 mi Calm Calm - N/A   Clear